{"data":{"norad_id":54768,"epoch":"2026-09-20T06:19:12.793728Z","epoch_age_seconds":109755,"freshness":"FRESH","line1":"1 54768U 22175L   26263.26334252  .00000391  00000+0  24380-4 0  9996","line2":"2 54768  53.1594 220.9626 0001252  92.3496 267.7649 15.31698905209705","mean_motion":15.31698905,"eccentricity":0.0001252,"inclination_deg":53.1594,"raan_deg":220.9626,"arg_perigee_deg":92.3496,"mean_anomaly_deg":267.7649,"bstar":2.438e-5,"rev_number":20970,"period_min":94.013255170408,"perigee_km":469.88577955714,"apogee_km":471.60073917409,"semimajor_km":6848.8802593656,"source":"CELESTRAK","updated_at":"2026-09-21T09:00:33.121757Z"}}